Aviation WX

[Source: ADDS]
METAR
KFKL 261156Z AUTO 22006KT 10SM CLR 18/16 A2990 RMK AO2 SLP116 7//// T01830156 10189 20139 53007 =
TAF
KFKL 261124Z 2612/2712 22004KT P6SM SKC FM262300 22005KT 6SM -RA VCTS BKN035CB FM270800 VRB03KT P6SM BKN025 =

Clarion Airport T-Shirts

small

Fuel Services

We have Avgas 100LL and Jet A premixed w/additive . Jet A can be delivered single point, or over the wing.  Quick Turn Around fueling is available, and we can do Hot Fueling of turbine helicopters by prior arrangement. 

Full service fueling is available during attended hours, or self serve after hours. 

If you would rather not pump the fuel yourself, after hours call out service is available at:

Aidan Stahlman 814-648-1626

 

Services

If you need fuel or services after hours, you may use our self-service fuel system, or we will arrange to have someone meet you.

Need a rental car? We can have one waiting for you when you arrive. If you need to stay
overnight, we have a heated hangar available, and there are several motels with pickup service within 4 miles of the airport. Find out who we can service you with by checking out our Links
.


  Fuel Availablility:
Attended hours or 
24 hours by request

Fuel Prices: Please check current  fuel prices at: http://www.airnav.com/airport/KAXQ/A



EPIC-Logo

Flight Training

Aircraft Rental

Hangars

Laser Grade FAA/FCC Computer Testing Center